Previsão horária em Barnim

Hoje, 26 Julho, Segunda-feira

Tempo Temperatura Precipitação Vento Pressão Humidade
00:00 +21°C° 0 mm 3 m/s 755 mmHg 73%
01:00 +20°C° 0 mm 2 m/s 755 mmHg 74%
02:00 +20°C° 0 mm 2 m/s 755 mmHg 75%
03:00 +20°C° 0 mm 2 m/s 755 mmHg 76%
04:00 +20°C° 0 mm 2 m/s 755 mmHg 77%
05:00 +20°C° 0 mm 2 m/s 755 mmHg 76%
06:00 +21°C° 0 mm 2 m/s 755 mmHg 74%
07:00 +23°C° 0 mm 2 m/s 755 mmHg 73%
08:00 +24°C° 0 mm 2 m/s 755 mmHg 68%
09:00 +26°C° 0 mm 2 m/s 755 mmHg 63%
10:00 +27°C° 0 mm 2 m/s 755 mmHg 58%
11:00 +28°C° 0 mm 2 m/s 755 mmHg 55%
12:00 +29°C° 0 mm 1 m/s 755 mmHg 52%
13:00 +30°C° 0 mm 1 m/s 755 mmHg 49%
14:00 +30°C° 0 mm 1 m/s 755 mmHg 50%
15:00 +29°C° 0 mm 1 m/s 755 mmHg 51%
16:00 +29°C° 0 mm 1 m/s 755 mmHg 52%
17:00 +29°C° 0 mm 1 m/s 754 mmHg 56%
18:00 +28°C° 0 mm 1 m/s 754 mmHg 59%
19:00 +25°C° 0 mm 0 m/s 754 mmHg 63%
20:00 +24°C° 0.1 mm 0 m/s 754 mmHg 66%
21:00 +23°C° 0.1 mm 0 m/s 755 mmHg 68%
22:00 +22°C° 0.1 mm 0 m/s 755 mmHg 71%
23:00 +23°C° 0.1 mm 1 m/s 755 mmHg 74%

Amanhã, 27 Julho, Terça-feira

Tempo Temperatura Precipitação Vento Pressão Humidade
00:00 +23°C° 0.1 mm 1 m/s 755 mmHg 77%
01:00 +22°C° 0.1 mm 1 m/s 755 mmHg 80%
02:00 +22°C° 0.2 mm 1 m/s 755 mmHg 83%
03:00 +20°C° 0.2 mm 2 m/s 755 mmHg 85%
04:00 +20°C° 0.2 mm 2 m/s 755 mmHg 88%
05:00 +20°C° 0 mm 2 m/s 755 mmHg 85%
06:00 +21°C° 0 mm 2 m/s 756 mmHg 82%
07:00 +23°C° 0 mm 2 m/s 756 mmHg 79%
08:00 +25°C° 0 mm 3 m/s 756 mmHg 71%
09:00 +26°C° 0 mm 3 m/s 756 mmHg 62%
10:00 +28°C° 0 mm 3 m/s 756 mmHg 54%
11:00 +28°C° 0 mm 4 m/s 756 mmHg 50%
12:00 +29°C° 0 mm 4 m/s 756 mmHg 47%
13:00 +30°C° 0 mm 4 m/s 756 mmHg 43%
14:00 +29°C° 0 mm 4 m/s 756 mmHg 43%
15:00 +29°C° 0 mm 4 m/s 756 mmHg 43%
16:00 +29°C° 0 mm 4 m/s 756 mmHg 44%
17:00 +28°C° 0 mm 3 m/s 756 mmHg 51%
18:00 +26°C° 0 mm 3 m/s 756 mmHg 57%
19:00 +25°C° 0 mm 2 m/s 756 mmHg 64%
20:00 +23°C° 0 mm 2 m/s 756 mmHg 68%
21:00 +22°C° 0 mm 1 m/s 756 mmHg 72%
22:00 +21°C° 0 mm 1 m/s 756 mmHg 76%
23:00 +21°C° 0 mm 1 m/s 756 mmHg 76%

Depois de amanhã, 28 Julho, Quarta-feira

Tempo Temperatura Precipitação Vento Pressão Humidade
00:00 +19°C° 0 mm 2 m/s 756 mmHg 77%
01:00 +19°C° 0 mm 2 m/s 756 mmHg 77%
02:00 +19°C° 0 mm 2 m/s 756 mmHg 77%
03:00 +19°C° 0 mm 2 m/s 755 mmHg 77%
04:00 +19°C° 0 mm 3 m/s 755 mmHg 77%
05:00 +19°C° 0 mm 3 m/s 755 mmHg 76%
06:00 +20°C° 0 mm 3 m/s 755 mmHg 76%
07:00 +20°C° 0 mm 4 m/s 755 mmHg 76%
08:00 +21°C° 0 mm 4 m/s 755 mmHg 71%
09:00 +22°C° 0 mm 5 m/s 756 mmHg 66%
10:00 +23°C° 0 mm 5 m/s 756 mmHg 62%
11:00 +23°C° 0.1 mm 5 m/s 756 mmHg 61%
12:00 +23°C° 0.1 mm 5 m/s 756 mmHg 60%
13:00 +23°C° 0.1 mm 5 m/s 756 mmHg 59%
14:00 +22°C° 0.3 mm 5 m/s 756 mmHg 67%
15:00 +21°C° 0.3 mm 5 m/s 756 mmHg 75%
16:00 +19°C° 0.3 mm 5 m/s 756 mmHg 83%
17:00 +19°C° 0 mm 4 m/s 756 mmHg 83%
18:00 +19°C° 0 mm 4 m/s 756 mmHg 83%
19:00 +19°C° 0 mm 4 m/s 756 mmHg 84%
20:00 +18°C° 0.1 mm 4 m/s 756 mmHg 87%
21:00 +18°C° 0.1 mm 3 m/s 756 mmHg 91%
22:00 +17°C° 0.1 mm 3 m/s 756 mmHg 95%
23:00 +17°C° 0.1 mm 3 m/s 756 mmHg 95%

29 Julho, Quinta-feira

Tempo Temperatura Precipitação Vento Pressão Humidade
00:00 +16°C° 0.1 mm 3 m/s 756 mmHg 94%
01:00 +16°C° 0.1 mm 3 m/s 756 mmHg 93%
02:00 +16°C° 0 mm 3 m/s 756 mmHg 94%
03:00 +16°C° 0 mm 3 m/s 755 mmHg 94%
04:00 +14°C° 0 mm 3 m/s 755 mmHg 94%
05:00 +17°C° 0 mm 3 m/s 755 mmHg 90%
06:00 +18°C° 0 mm 4 m/s 755 mmHg 85%
07:00 +19°C° 0 mm 4 m/s 756 mmHg 80%
08:00 +20°C° 0 mm 5 m/s 756 mmHg 70%
09:00 +22°C° 0 mm 6 m/s 756 mmHg 60%
10:00 +23°C° 0 mm 6 m/s 756 mmHg 50%
11:00 +24°C° 0 mm 6 m/s 756 mmHg 48%
12:00 +26°C° 0 mm 6 m/s 756 mmHg 45%
13:00 +26°C° 0 mm 6 m/s 755 mmHg 43%
14:00 +26°C° 0 mm 6 m/s 755 mmHg 42%
15:00 +26°C° 0 mm 6 m/s 755 mmHg 41%
16:00 +26°C° 0 mm 6 m/s 755 mmHg 40%
17:00 +25°C° 0 mm 4 m/s 755 mmHg 45%
18:00 +24°C° 0 mm 3 m/s 755 mmHg 50%
19:00 +23°C° 0 mm 2 m/s 755 mmHg 55%
20:00 +22°C° 0 mm 1 m/s 754 mmHg 56%
21:00 +21°C° 0 mm 1 m/s 754 mmHg 57%
22:00 +20°C° 0 mm 1 m/s 754 mmHg 59%
23:00 +19°C° 0 mm 1 m/s 754 mmHg 60%

30 Julho, Sexta-feira

Tempo Temperatura Precipitação Vento Pressão Humidade
00:00 +18°C° 0 mm 1 m/s 754 mmHg 61%
01:00 +18°C° 0 mm 1 m/s 753 mmHg 63%
02:00 +18°C° 0 mm 1 m/s 753 mmHg 63%
03:00 +17°C° 0 mm 2 m/s 752 mmHg 64%
04:00 +17°C° 0 mm 2 m/s 752 mmHg 65%
05:00 +18°C° 0 mm 3 m/s 751 mmHg 64%
06:00 +20°C° 0 mm 4 m/s 751 mmHg 62%
07:00 +21°C° 0 mm 4 m/s 750 mmHg 61%
08:00 +22°C° 0.1 mm 5 m/s 750 mmHg 59%
09:00 +23°C° 0.1 mm 6 m/s 750 mmHg 57%
10:00 +24°C° 0.1 mm 7 m/s 750 mmHg 55%
11:00 +26°C° 0 mm 8 m/s 750 mmHg 50%
12:00 +26°C° 0 mm 9 m/s 750 mmHg 45%
13:00 +26°C° 0 mm 11 m/s 750 mmHg 40%
14:00 +26°C° 0 mm 10 m/s 750 mmHg 42%
15:00 +24°C° 0 mm 9 m/s 751 mmHg 44%
16:00 +23°C° 0 mm 9 m/s 751 mmHg 46%
17:00 +22°C° 0 mm 8 m/s 751 mmHg 48%
18:00 +21°C° 0 mm 7 m/s 751 mmHg 51%
19:00 +20°C° 0 mm 6 m/s 751 mmHg 53%
20:00 +19°C° 0 mm 5 m/s 751 mmHg 57%
21:00 +17°C° 0 mm 4 m/s 751 mmHg 62%
22:00 +16°C° 0 mm 3 m/s 751 mmHg 66%
23:00 +15°C° 0 mm 4 m/s 751 mmHg 67%

31 Julho, Sábado

Tempo Temperatura Precipitação Vento Pressão Humidade
00:00 +15°C° 0 mm 4 m/s 751 mmHg 69%
01:00 +15°C° 0 mm 4 m/s 751 mmHg 70%
02:00 +15°C° 0 mm 4 m/s 751 mmHg 74%
03:00 +15°C° 0 mm 5 m/s 751 mmHg 78%
04:00 +14°C° 0 mm 5 m/s 751 mmHg 81%
05:00 +15°C° 0 mm 5 m/s 751 mmHg 78%
06:00 +16°C° 0 mm 6 m/s 751 mmHg 75%
07:00 +17°C° 0 mm 7 m/s 751 mmHg 73%
08:00 +18°C° 0 mm 7 m/s 751 mmHg 67%
09:00 +20°C° 0 mm 7 m/s 751 mmHg 61%
10:00 +22°C° 0 mm 8 m/s 751 mmHg 55%
11:00 +22°C° 0.2 mm 8 m/s 751 mmHg 56%
12:00 +22°C° 0.2 mm 8 m/s 751 mmHg 57%
13:00 +22°C° 0.2 mm 8 m/s 751 mmHg 57%
14:00 +22°C° 0.3 mm 7 m/s 751 mmHg 57%
15:00 +22°C° 0.3 mm 7 m/s 751 mmHg 57%
16:00 +22°C° 0.3 mm 6 m/s 751 mmHg 57%
17:00 +22°C° 0.2 mm 6 m/s 751 mmHg 60%
18:00 +21°C° 0.2 mm 5 m/s 751 mmHg 64%
19:00 +20°C° 0.2 mm 5 m/s 751 mmHg 68%
20:00 +19°C° 0 mm 5 m/s 751 mmHg 72%
21:00 +17°C° 0 mm 5 m/s 752 mmHg 76%
22:00 +17°C° 0 mm 4 m/s 752 mmHg 80%
23:00 +17°C° 0 mm 4 m/s 752 mmHg 84%
Mostrar mais